GW4570 Weather Reports


Display with metric or nautical units.
time (UTC)temp
F
wind
direction
speed
MPH
gust
MPH
rain 1hr
in
rain 24hr
in
rain mn
in
humidity
%
barometer
mb
20260502130601 44 174 1.0 1.0 0.00 0.00 0.00 70 1014.2
20260502123543 43 303 0.0 1.0 0.00 0.00 0.00 76 1014.3
20260502123040 42 303 1.0 1.0 0.00 0.00 0.00 78 1014.5
20260502122537 42 303 1.0 2.0 0.00 0.00 0.00 80 1014.4
20260502122034 42 303 2.0 3.0 0.00 0.00 0.00 75 1014.5
20260502121532 42 302 1.0 1.0 0.00 0.00 0.00 80 1014.2
20260502121029 42 303 0.0 0.0 0.00 0.00 0.00 81 1014.3
20260502120525 41 302 0.0 1.0 0.00 0.00 0.00 83 1014.3
20260502115520 41 297 1.0 2.0 0.00 0.00 0.00 83 1014.4
20260502115016 41 297 0.0 0.0 0.00 0.00 0.00 87 1014.4
20260502114513 40 297 1.0 2.0 0.00 0.00 0.00 87 1014.1
20260502114009 40 298 0.0 0.0 0.00 0.00 0.00 89 1014.2
20260502113506 38 298 0.0 0.0 0.00 0.00 0.00 91 1014.3
20260502113005 38 298 0.0 0.0 0.00 0.00 0.00 91 1014.3
20260502112502 38 298 0.0 0.0 0.00 0.00 0.00 91 1014.3
20260502112000 37 298 0.0 0.0 0.00 0.00 0.00 92 1014.2
20260502111457 37 298 0.0 0.0 0.00 0.00 0.00 92 1014.0
20260502110954 37 298 0.0 0.0 0.00 0.00 0.00 92 1014.1
20260502110452 37 298 0.0 0.0 0.00 0.00 0.00 92 1014.1
20260502105949 37 298 0.0 0.0 0.00 0.00 0.00 91 1013.9
20260502105447 37 298 0.0 0.0 0.00 0.00 0.00 91 1014.0
20260502104944 37 298 0.0 0.0 0.00 0.00 0.00 91 1014.0
20260502104441 37 298 0.0 0.0 0.00 0.00 0.00 90 1013.9
20260502103938 37 298 0.0 0.0 0.00 0.00 0.00 90 1014.3
20260502103436 37 298 0.0 1.0 0.00 0.00 0.00 89 1014.3
20260502102933 37 298 0.0 0.0 0.00 0.00 0.00 90 1014.1
20260502102429 0 0.0 0.0 0.00 0.00 0.00 1013.9
20260502101926 0 0.0 0.0 0.00 0.00 0.00 1014.1
20260502101425 0 0.0 0.0 0.00 0.00 0.00 1014.4
20260502100922 0 0.0 0.0 0.00 0.00 0.00 1014.2
20260502100422 38 291 0.0 0.0 0.00 0.00 0.00 86 1014.4
20260502091356 39 291 0.0 0.0 0.00 0.00 0.00 86 1014.4
20260502090854 39 291 0.0 0.0 0.00 0.00 0.00 86 1014.3
20260502090350 40 291 0.0 1.0 0.00 0.00 0.00 84 1014.4
20260502071245 43 314 3.0 3.0 0.00 0.00 0.00 77 1013.9
20260502070743 42 327 2.0 2.0 0.00 0.00 0.00 80 1014.1
20260502070240 43 315 0.0 0.0 0.00 0.00 0.00 81 1013.9
20260502065739 43 299 1.0 1.0 0.00 0.00 0.00 80 1013.7
20260502065237 43 315 1.0 2.0 0.00 0.00 0.00 78 1014.2
20260502064735 43 296 0.0 0.0 0.00 0.00 0.00 79 1014.1
20260502064232 43 296 0.0 0.0 0.00 0.00 0.00 78 1014.1
20260502063729 44 318 1.0 2.0 0.00 0.00 0.00 77 1014.1
20260502063227 44 336 2.0 3.0 0.00 0.00 0.00 75 1014.0
20260502062724 44 338 2.0 3.0 0.00 0.00 0.00 75 1014.3
20260502062222 45 335 2.0 3.0 0.00 0.00 0.00 74 1014.1
20260502061720 45 309 3.0 3.0 0.00 0.00 0.00 72 1014.3
20260502061217 44 326 1.0 2.0 0.00 0.00 0.00 75 1014.2
20260502060712 45 331 2.0 3.0 0.00 0.00 0.00 72 1014.2
20260502060208 45 326 2.0 3.0 0.00 0.00 0.00 75 1014.4
20260502055706 45 326 3.0 3.0 0.00 0.00 0.00 71 1014.2
20260502055204 46 323 0.0 3.0 0.00 0.00 0.00 69 1014.0
20260502054703 46 322 2.0 3.0 0.00 0.00 0.00 71 1014.1
20260502054200 46 322 2.0 2.0 0.00 0.00 0.00 72 1014.1
20260502053657 46 322 0.0 0.0 0.00 0.00 0.00 70 1014.5
20260502053154 0 0.0 0.0 0.00 0.00 0.00 1014.2
20260502052652 0 0.0 0.0 0.00 0.00 0.00 1014.4
20260502052150 46 322 2.0 2.0 0.00 0.00 0.00 70 1014.3
20260502051648 46 322 2.0 2.0 0.00 0.00 0.00 70 1014.2
20260502051146 46 274 1.0 1.0 0.00 0.00 0.00 69 1014.4
20260502050642 46 326 3.0 4.0 0.00 0.00 0.00 71 1014.4
20260502050139 47 285 5.0 6.0 0.00 0.00 0.00 70 1014.4
20260502045635 47 285 5.0 6.0 0.00 0.00 0.00 70 1014.4
20260502045133 46 326 4.0 4.0 0.00 0.00 0.00 74 1014.5
20260502044629 47 324 6.0 8.0 0.00 0.00 0.00 73 1014.5
20260502044126 47 324 7.0 8.0 0.00 0.00 0.00 73 1014.5
20260502043624 47 307 6.0 8.0 0.00 0.00 0.00 75 1014.4
20260502043120 47 325 7.0 8.0 0.00 0.00 0.00 76 1014.6
20260502042614 47 324 5.0 8.0 0.00 0.00 0.00 76 1014.5
20260502042112 47 326 4.0 4.0 0.00 0.00 0.00 76 1014.3
20260502041609 47 306 5.0 7.0 0.00 0.00 0.00 75 1014.5
20260502041106 47 348 6.0 9.0 0.00 0.00 0.00 74 1014.4
20260502040603 47 334 7.0 8.0 0.00 0.00 0.00 74 1014.7
20260502040100 47 315 1.0 2.0 0.00 0.00 0.00 74 1014.3
20260502035556 47 321 4.0 4.0 0.00 0.00 0.00 73 1014.4
20260502035054 47 322 5.0 6.0 0.00 0.00 0.00 72 1014.5
20260502034551 48 303 2.0 2.0 0.00 0.00 0.00 71 1014.4
20260502034049 47 315 2.0 2.0 0.00 0.00 0.00 73 1014.6
20260502033548 47 315 1.0 2.0 0.00 0.00 0.00 72 1014.3
20260502033044 48 308 2.0 3.0 0.00 0.00 0.00 71 1014.4
20260502032540 48 282 1.0 2.0 0.00 0.00 0.00 71 1014.4
20260502032037 48 328 3.0 7.0 0.00 0.00 0.00 70 1014.3
20260502031535 48 332 4.0 6.0 0.00 0.00 0.00 69 1014.2
20260502031033 48 332 7.0 9.0 0.00 0.00 0.00 70 1014.4
20260502030531 48 323 6.0 8.0 0.00 0.00 0.00 70 1014.4
20260502030029 48 294 4.0 4.0 0.00 0.00 0.00 71 1014.4
20260502025526 48 328 4.0 7.0 0.00 0.00 0.00 69 1014.2
20260502025024 48 338 2.0 6.0 0.00 0.00 0.00 71 1014.2
20260502024521 48 346 4.0 4.0 0.00 0.00 0.00 69 1014.0
20260502024020 48 346 4.0 4.0 0.00 0.00 0.00 69 1014.0
20260502023517 48 350 3.0 4.0 0.00 0.00 0.00 72 1013.6
20260502023014 49 335 4.0 6.0 0.00 0.00 0.00 70 1013.6
20260502022510 49 325 4.0 8.0 0.00 0.00 0.00 71 1014.1
20260502022008 49 346 4.0 4.0 0.00 0.00 0.00 72 1013.9
20260502021505 49 258 4.0 4.0 0.00 0.00 0.00 72 1013.7
20260502021001 49 332 6.0 7.0 0.00 0.00 0.00 72 1013.5
20260502020500 49 345 5.0 7.0 0.00 0.00 0.00 73 1013.3
20260502015956 49 345 5.0 7.0 0.00 0.00 0.00 73 1013.2
20260502015454 49 334 4.0 6.0 0.00 0.00 0.00 72 1013.0
20260502014950 50 330 5.0 8.0 0.00 0.00 0.00 72 1012.9
20260502014447 50 318 5.0 6.0 0.00 0.00 0.00 74 1012.8
20260502013944 50 359 6.0 10.0 0.00 0.00 0.00 71 1013.0
20260502013439 50 351 5.0 8.0 0.00 0.00 0.00 73 1013.0
20260502012936 50 340 2.0 2.0 0.00 0.00 0.00 74 1013.2
20260502012434 50 315 0.0 0.0 0.00 0.00 0.00 74 1012.9
20260502011931 51 306 3.0 7.0 0.00 0.00 0.00 72 1013.0
20260502011427 50 308 5.0 8.0 0.00 0.00 0.00 73 1012.9
20260502010924 51 332 2.0 2.0 0.00 0.00 0.00 73 1012.6
20260502010421 51 322 0.0 0.0 0.00 0.00 0.00 73 1012.5
20260502005917 51 322 4.0 7.0 0.00 0.00 0.00 72 1012.7
20260502005415 51 326 6.0 9.0 0.00 0.00 0.00 71 1012.4
20260502004913 52 324 7.0 8.0 0.00 0.00 0.00 71 1012.3
20260502004409 52 313 5.0 7.0 0.00 0.00 0.00 69 1011.9
20260502003906 52 323 6.0 11.0 0.00 0.00 0.00 68 1011.4
20260502003403 52 314 5.0 8.0 0.00 0.00 0.00 69 1011.5
20260502002859 53 306 6.0 10.0 0.00 0.00 0.00 67 1011.2
20260502002357 53 320 5.0 6.0 0.00 0.00 0.00 66 1011.2
20260502001854 53 278 6.0 10.0 0.00 0.00 0.00 65 1011.0
20260502001352 54 291 9.0 17.0 0.00 0.00 0.00 63 1011.0
20260502000849 54 345 7.0 10.0 0.00 0.00 0.00 63 1011.1
20260502000347 54 319 7.0 13.0 0.00 0.00 0.00 63 1010.8
20260501235843 55 326 10.0 11.0 0.00 0.00 0.00 60 1010.9
20260501235339 55 329 7.0 11.0 0.00 0.00 0.00 59 1010.2
20260501234834 55 322 9.0 10.0 0.00 0.00 0.00 58 1010.7
20260501234331 55 317 8.0 13.0 0.00 0.00 0.00 57 1010.3
20260501233830 56 344 8.0 10.0 0.00 0.00 0.00 54 1010.0
20260501233327 57 283 5.0 10.0 0.00 0.00 0.00 52 1009.9
20260501232823 58 264 6.0 8.0 0.00 0.00 0.00 51 1009.9
20260501232320 57 309 5.0 11.0 0.00 0.00 0.00 49 1009.7
20260501231818 58 320 6.0 8.0 0.00 0.00 0.00 48 1009.8
20260501231315 59 316 6.0 10.0 0.00 0.00 0.00 46 1009.9
20260501230813 60 302 5.0 7.0 0.00 0.00 0.00 43 1009.5
20260501230312 61 302 7.0 9.0 0.00 0.00 0.00 40 1010.0
20260501225809 62 311 4.0 6.0 0.00 0.00 0.00 40 1009.8
20260501225307 62 288 2.0 6.0 0.00 0.00 0.00 38 1009.8
20260501224803 63 308 1.0 3.0 0.00 0.00 0.00 38 1009.7
20260501224300 62 300 4.0 7.0 0.00 0.00 0.00 35 1009.5
20260501223756 62 199 3.0 9.0 0.00 0.00 0.00 37 1009.6
20260501223253 62 20 3.0 6.0 0.00 0.00 0.00 36 1009.4
20260501222748 64 30 0.0 2.0 0.00 0.00 0.00 35 1009.6
20260501222246 64 284 1.0 3.0 0.00 0.00 0.00 36 1009.6
20260501221743 63 32 3.0 4.0 0.00 0.00 0.00 36 1009.8
20260501221240 62 356 1.0 2.0 0.00 0.00 0.00 35 1009.4
20260501220738 63 87 1.0 3.0 0.00 0.00 0.00 35 1009.6
20260501220235 63 64 1.0 3.0 0.00 0.00 0.00 35 1009.6
20260501215732 65 58 2.0 3.0 0.00 0.00 0.00 33 1010.0
20260501215227 64 72 0.0 1.0 0.00 0.00 0.00 35 1009.4
20260501214722 64 97 4.0 6.0 0.00 0.00 0.00 35 1009.7
20260501214219 65 196 1.0 3.0 0.00 0.00 0.00 33 1009.7
20260501213715 66 281 2.0 4.0 0.00 0.00 0.00 34 1009.5
20260501213211 65 20 2.0 2.0 0.00 0.00 0.00 34 1009.6
20260501212708 64 71 2.0 2.0 0.00 0.00 0.00 35 1009.7
20260501212204 64 148 2.0 7.0 0.00 0.00 0.00 33 1009.6
20260501211701 66 339 4.0 6.0 0.00 0.00 0.00 31 1009.5
20260501211158 66 265 4.0 7.0 0.00 0.00 0.00 33 1009.7
20260501210655 65 34 1.0 2.0 0.00 0.00 0.00 33 1009.7
20260501210152 65 250 1.0 7.0 0.00 0.00 0.00 30 1009.6
20260501205648 65 127 1.0 2.0 0.00 0.00 0.00 30 1009.4
20260501205146 64 272 3.0 6.0 0.00 0.00 0.00 33 1009.5
20260501204642 67 145 1.0 4.0 0.00 0.00 0.00 31 1009.5
20260501204138 67 35 2.0 4.0 0.00 0.00 0.00 35 1009.5
20260501203635 64 105 2.0 6.0 0.00 0.00 0.00 34 1009.6
20260501203132 65 137 2.0 4.0 0.00 0.00 0.00 34 1009.4
20260501202629 66 244 2.0 10.0 0.00 0.00 0.00 35 1009.2
20260501202126 66 251 4.0 4.0 0.00 0.00 0.00 33 1009.3
20260501201623 65 57 0.0 0.0 0.00 0.00 0.00 40 1009.5
20260501201119 65 118 0.0 1.0 0.00 0.00 0.00 40 1009.4
20260501200617 64 111 1.0 1.0 0.00 0.00 0.00 39 1009.4
20260501200114 64 145 1.0 1.0 0.00 0.00 0.00 41 1009.8
20260501195612 64 130 2.0 3.0 0.00 0.00 0.00 36 1009.6
20260501195107 67 35 2.0 3.0 0.00 0.00 0.00 38 1009.8
20260501194602 69 166 2.0 3.0 0.00 0.00 0.00 35 1009.7
20260501194058 67 306 1.0 1.0 0.00 0.00 0.00 38 1009.9
20260501193556 67 158 0.0 2.0 0.00 0.00 0.00 36 1009.9
20260501193055 67 153 1.0 3.0 0.00 0.00 0.00 36 1010.3
20260501192551 67 185 4.0 6.0 0.00 0.00 0.00 36 1010.2
20260501192049 67 248 1.0 2.0 0.00 0.00 0.00 43 1010.0
20260501191545 65 236 2.0 10.0 0.00 0.00 0.00 43 1010.2
20260501191043 66 160 2.0 6.0 0.00 0.00 0.00 35 1010.3
20260501190538 66 278 2.0 9.0 0.00 0.00 0.00 44 1010.5
20260501190034 66 285 2.0 3.0 0.00 0.00 0.00 37 1010.6
20260501185530 65 265 0.0 3.0 0.00 0.00 0.00 39 1010.8
20260501185026 66 162 6.0 9.0 0.00 0.00 0.00 43 1010.6
20260501184523 66 264 1.0 8.0 0.00 0.00 0.00 39 1010.7
20260501184023 66 166 1.0 2.0 0.00 0.00 0.00 42 1010.8
20260501183520 67 215 3.0 7.0 0.00 0.00 0.00 43 1010.9
20260501183016 65 101 1.0 2.0 0.00 0.00 0.00 37 1010.9
20260501182513 65 263 2.0 3.0 0.00 0.00 0.00 41 1011.1
20260501182010 65 331 1.0 3.0 0.00 0.00 0.00 43 1011.2
20260501181508 65 3 2.0 2.0 0.00 0.00 0.00 44 1011.3
20260501181004 65 70 0.0 3.0 0.00 0.00 0.00 38 1011.2
20260501180502 65 110 0.0 2.0 0.00 0.00 0.00 39 1011.4
20260501175957 65 171 1.0 4.0 0.00 0.00 0.00 37 1011.3
20260501175455 65 321 2.0 3.0 0.00 0.00 0.00 40 1011.4
20260501174951 66 276 2.0 3.0 0.00 0.00 0.00 40 1011.3
20260501174449 66 124 0.0 1.0 0.00 0.00 0.00 43 1011.3
20260501173946 65 314 1.0 2.0 0.00 0.00 0.00 39 1011.4
20260501173444 64 258 1.0 3.0 0.00 0.00 0.00 36 1011.4
20260501172939 63 190 2.0 3.0 0.00 0.00 0.00 38 1011.7
20260501172435 62 180 4.0 6.0 0.00 0.00 0.00 43 1011.5
20260501171931 62 90 2.0 4.0 0.00 0.00 0.00 41 1011.8
20260501171427 62 143 5.0 8.0 0.00 0.00 0.00 45 1011.7
20260501170924 62 263 0.0 0.0 0.00 0.00 0.00 38 1011.9
20260501170421 60 170 4.0 8.0 0.00 0.00 0.00 48 1012.2
20260501165919 61 126 3.0 9.0 0.00 0.00 0.00 50 1012.2
20260501165416 62 259 2.0 2.0 0.00 0.00 0.00 45 1011.9
20260501164914 59 143 4.0 7.0 0.00 0.00 0.00 44 1012.3
20260501164411 59 124 4.0 6.0 0.00 0.00 0.00 42 1012.5
20260501163908 60 243 1.0 4.0 0.00 0.00 0.00 49 1012.4
20260501163404 59 231 0.0 7.0 0.00 0.00 0.00 55 1012.5
20260501162900 58 125 5.0 7.0 0.00 0.00 0.00 48 1012.7
20260501162357 58 175 3.0 3.0 0.00 0.00 0.00 47 1012.5
20260501161854 56 150 4.0 6.0 0.00 0.00 0.00 53 1012.8
20260501161351 57 264 1.0 2.0 0.00 0.00 0.00 51 1012.7
20260501160848 57 216 0.0 0.0 0.00 0.00 0.00 57 1012.8
20260501160344 57 95 2.0 2.0 0.00 0.00 0.00 59 1013.0
20260501155842 58 187 2.0 3.0 0.00 0.00 0.00 59 1013.0
20260501155338 56 116 2.0 2.0 0.00 0.00 0.00 62 1013.2
20260501154835 56 171 2.0 2.0 0.00 0.00 0.00 62 1013.4
20260501154332 56 180 3.0 6.0 0.00 0.00 0.00 62 1013.4
20260501153830 54 73 1.0 2.0 0.00 0.00 0.00 62 1013.5
20260501153327 53 125 2.0 6.0 0.00 0.00 0.00 64 1013.4
20260501152823 54 74 3.0 3.0 0.00 0.00 0.00 63 1013.5
20260501152320 53 107 1.0 2.0 0.00 0.00 0.00 65 1013.5
20260501151818 53 119 2.0 3.0 0.00 0.00 0.00 63 1013.6
20260501151314 52 214 2.0 4.0 0.00 0.00 0.00 67 1014.0
20260501150810 52 97 3.0 3.0 0.00 0.00 0.00 61 1013.5
20260501150307 52 88 1.0 2.0 0.00 0.00 0.00 62 1013.6
20260501145803 51 151 0.0 2.0 0.00 0.00 0.00 64 1014.1
20260501145300 51 98 3.0 3.0 0.00 0.00 0.00 64 1014.3
20260501144756 50 72 1.0 2.0 0.00 0.00 0.00 65 1014.5
20260501144252 50 166 2.0 3.0 0.00 0.00 0.00 65 1014.5
20260501143749 51 139 0.0 3.0 0.00 0.00 0.00 64 1014.4
20260501143246 50 179 1.0 4.0 0.00 0.00 0.00 64 1014.4
20260501142743 50 83 2.0 2.0 0.00 0.00 0.00 67 1014.5
20260501142239 48 137 0.0 2.0 0.00 0.00 0.00 74 1014.8
20260501141734 48 105 2.0 3.0 0.00 0.00 0.00 75 1014.7